GW5586 Weather Reports


Display with metric or nautical units.
time (UTC)temp
F
wind
direction
speed
MPH
gust
MPH
rain 1hr
in
rain 24hr
in
rain mn
in
humidity
%
barometer
mb
20260906225024 62 40 1.0 3.0 0.00 0.00 0.00 78 1017.7
20260906224624 62 53 1.0 3.0 0.00 0.00 0.00 79 1017.6
20260906224018 61 61 1.0 3.0 0.00 0.00 0.00 79 1017.6
20260906223541 61 37 2.0 3.0 0.00 0.00 0.00 79 1017.6
20260906223128 61 38 2.0 3.0 0.00 0.00 0.00 79 1017.6
20260906222518 61 46 1.0 3.0 0.00 0.00 0.00 79 1017.5
20260906222041 61 27 1.0 3.0 0.00 0.00 0.00 79 1017.5
20260906221623 61 36 1.0 5.0 0.00 0.00 0.00 79 1017.5
20260906221036 61 76 1.0 5.0 0.00 0.00 0.00 79 1017.7
20260906220524 61 51 1.0 3.0 0.00 0.00 0.00 79 1017.7
20260906220054 62 30 1.0 4.0 0.00 0.00 0.00 78 1017.6
20260906215533 61 88 2.0 4.0 0.00 0.00 0.00 81 1017.4
20260906215031 61 74 1.0 3.0 0.00 0.00 0.00 79 1017.4
20260906214605 61 21 1.0 3.0 0.00 0.00 0.00 80 1017.4
20260906214025 61 27 1.0 3.0 0.00 0.00 0.00 80 1017.5
20260906213524 60 32 1.0 3.0 0.00 0.00 0.00 80 1017.6
20260906213107 61 29 1.0 3.0 0.00 0.00 0.00 80 1017.6
20260906212523 60 29 1.0 3.0 0.00 0.00 0.00 81 1017.6
20260906212027 60 40 1.0 3.0 0.00 0.00 0.00 80 1017.6
20260906211623 60 55 1.0 3.0 0.00 0.00 0.00 82 1017.4
20260906211024 59 126 1.0 7.0 0.00 0.00 0.00 83 1017.5
20260906210525 59 16 1.0 15.0 0.00 0.00 0.00 82 1017.5
20260906210124 59 280 6.0 15.0 0.00 0.00 0.00 83 1017.4
20260906205529 59 259 2.0 10.0 0.00 0.00 0.00 83 1017.4
20260906205020 59 329 4.0 10.0 0.00 0.00 0.00 83 1017.4
20260906204624 59 260 4.0 9.0 0.00 0.00 0.00 84 1017.4
20260906204020 58 360 3.0 8.0 0.00 0.00 0.00 85 1017.3
20260906203527 58 346 3.0 8.0 0.00 0.00 0.00 85 1017.5
20260906203123 57 277 2.0 6.0 0.00 0.00 0.00 85 1017.7
20260906202550 58 329 2.0 6.0 0.00 0.00 0.00 85 1017.5
20260906202021 58 339 2.0 4.0 0.00 0.00 0.00 86 1017.5
20260906201631 57 352 2.0 6.0 0.00 0.00 0.00 86 1017.7
20260906201023 57 304 3.0 6.0 0.00 0.00 0.00 86 1017.7
20260906200523 56 5 1.0 5.0 0.00 0.00 0.00 87 1017.7
20260906200126 56 335 2.0 7.0 0.00 0.00 0.00 87 1017.8
20260906195535 56 320 3.0 7.0 0.00 0.00 0.00 87 1017.8
20260906195044 56 324 2.0 6.0 0.00 0.00 0.00 86 1017.9
20260906194626 57 331 3.0 6.0 0.00 0.00 0.00 86 1017.9
20260906194035 57 268 1.0 4.0 0.00 0.00 0.00 87 1017.9
20260906193523 56 295 1.0 4.0 0.00 0.00 0.00 87 1017.9
20260906193122 56 311 1.0 6.0 0.00 0.00 0.00 87 1017.9
20260906192520 56 346 1.0 6.0 0.00 0.00 0.00 86 1018.0
20260906192046 56 257 1.0 7.0 0.00 0.00 0.00 86 1018.0
20260906191630 56 309 2.0 7.0 0.00 0.00 0.00 86 1018.1
20260906191016 57 276 2.0 6.0 0.00 0.00 0.00 86 1018.1
20260906190534 57 249 0.0 3.0 0.00 0.00 0.00 87 1018.1
20260906190135 57 17 1.0 3.0 0.00 0.00 0.00 87 1018.1
20260906185536 56 31 1.0 3.0 0.00 0.00 0.00 88 1018.1
20260906185035 56 46 1.0 3.0 0.00 0.00 0.00 87 1018.1
20260906184600 56 20 1.0 3.0 0.00 0.00 0.00 87 1018.1
20260906184024 57 32 1.0 3.0 0.00 0.00 0.00 86 1018.1
20260906183529 57 13 1.0 3.0 0.00 0.00 0.00 87 1018.2
20260906183128 57 5 1.0 4.0 0.00 0.00 0.00 87 1018.1
20260906182526 57 15 2.0 4.0 0.00 0.00 0.00 87 1018.1
20260906182051 57 28 0.0 4.0 0.00 0.00 0.00 89 1018.1
20260906181637 56 59 1.0 4.0 0.00 0.00 0.00 89 1018.1
20260906181039 56 49 1.0 4.0 0.00 0.00 0.00 89 1018.1
20260906180537 56 28 1.0 4.0 0.00 0.00 0.00 89 1018.1
20260906180117 56 145 2.0 5.0 0.00 0.00 0.00 88 1018.1
20260906175545 56 31 2.0 5.0 0.00 0.00 0.00 88 1018.2
20260906175030 56 39 2.0 4.0 0.00 0.00 0.00 89 1018.2
20260906174624 56 36 2.0 3.0 0.00 0.00 0.00 89 1018.2
20260906174044 56 34 1.0 4.0 0.00 0.00 0.00 89 1018.3
20260906173524 56 9 1.0 4.0 0.00 0.00 0.00 89 1018.4
20260906173124 55 56 1.0 4.0 0.00 0.00 0.00 90 1018.4
20260906172526 55 49 1.0 3.0 0.00 0.00 0.00 89 1018.4
20260906172047 55 37 0.0 2.0 0.00 0.00 0.00 90 1018.4
20260906171610 55 37 1.0 3.0 0.00 0.00 0.00 90 1018.3
20260906171031 55 37 1.0 3.0 0.00 0.00 0.00 90 1018.3
20260906170546 55 40 1.0 2.0 0.00 0.00 0.00 91 1018.3
20260906170200 55 11 1.0 2.0 0.00 0.00 0.00 90 1018.3
20260906165518 55 11 1.0 2.0 0.00 0.00 0.00 91 1018.3
20260906165034 55 36 1.0 2.0 0.00 0.00 0.00 91 1018.3
20260906164624 54 35 1.0 3.0 0.00 0.00 0.00 91 1018.3
20260906164023 54 28 1.0 3.0 0.00 0.00 0.00 92 1018.3
20260906163519 54 47 1.0 3.0 0.00 0.00 0.00 92 1018.3
20260906163131 54 34 1.0 2.0 0.00 0.00 0.00 92 1018.4
20260906162519 54 34 1.0 2.0 0.00 0.00 0.00 92 1018.3
20260906162035 54 144 0.0 2.0 0.00 0.00 0.00 92 1018.3
20260906161606 54 144 1.0 3.0 0.00 0.00 0.00 93 1018.3
20260906161024 53 105 1.0 3.0 0.00 0.00 0.00 93 1018.2
20260906160530 53 26 0.0 4.0 0.00 0.00 0.00 94 1018.3
20260906160158 53 22 1.0 4.0 0.00 0.00 0.00 94 1018.3
20260906155538 53 126 1.0 6.0 0.00 0.00 0.00 93 1018.3
20260906155026 53 153 4.0 8.0 0.00 0.00 0.00 93 1018.2
20260906154633 53 117 3.0 8.0 0.00 0.00 0.00 93 1018.2
20260906154034 53 128 2.0 7.0 0.00 0.00 0.00 93 1018.2
20260906153525 53 161 2.0 7.0 0.00 0.00 0.00 93 1018.1
20260906153111 53 184 3.0 7.0 0.00 0.00 0.00 93 1018.1
20260906152532 53 207 2.0 6.0 0.00 0.00 0.00 93 1018.0
20260906152022 53 109 1.0 3.0 0.00 0.00 0.00 93 1018.0
20260906151625 53 128 1.0 3.0 0.00 0.00 0.00 93 1018.0
20260906151037 52 150 2.0 8.0 0.00 0.00 0.00 93 1018.0
20260906150546 52 86 4.0 8.0 0.00 0.00 0.00 94 1018.0
20260906150138 52 143 2.0 6.0 0.00 0.00 0.00 94 1018.0
20260906145545 52 131 3.0 8.0 0.00 0.00 0.00 94 1018.0
20260906145042 52 119 4.0 8.0 0.00 0.00 0.00 94 1018.0
20260906144626 52 118 1.0 6.0 0.00 0.00 0.00 94 1018.0
20260906144032 52 159 3.0 8.0 0.00 0.00 0.00 94 1018.0
20260906143537 52 120 3.0 8.0 0.00 0.00 0.00 94 1018.1
20260906143117 52 111 3.0 9.0 0.00 0.00 0.00 94 1018.1
20260906142524 52 130 2.0 7.0 0.00 0.00 0.00 94 1018.0
20260906142021 52 55 2.0 7.0 0.00 0.00 0.00 94 1018.0
20260906141634 52 126 3.0 10.0 0.00 0.00 0.00 94 1017.9
20260906141024 52 143 4.0 12.0 0.00 0.00 0.00 94 1017.9
20260906140523 52 157 3.0 12.0 0.00 0.00 0.00 95 1017.9
20260906140159 52 138 3.0 8.0 0.00 0.00 0.00 95 1017.8
20260906135540 52 94 4.0 9.0 0.00 0.00 0.00 95 1017.8
20260906135029 52 123 4.0 10.0 0.00 0.00 0.00 95 1017.9
20260906134646 52 153 4.0 10.0 0.00 0.00 0.00 95 1017.9
20260906134036 52 118 5.0 10.0 0.00 0.00 0.00 95 1017.7
20260906133521 52 88 4.0 10.0 0.00 0.00 0.00 95 1017.8
20260906133147 52 80 3.0 13.0 0.00 0.00 0.00 95 1017.8
20260906132519 52 136 2.0 13.0 0.00 0.00 0.00 96 1017.8
20260906132029 52 124 2.0 11.0 0.00 0.00 0.00 96 1017.8
20260906131626 52 105 6.0 11.0 0.00 0.00 0.00 96 1017.8
20260906131040 52 119 6.0 11.0 0.00 0.00 0.00 95 1017.9
20260906130524 52 54 4.0 10.0 0.00 0.00 0.00 96 1017.8
20260906130128 52 117 2.0 8.0 0.00 0.00 0.00 95 1017.9
20260906125536 52 78 3.0 10.0 0.00 0.00 0.00 96 1017.8
20260906125025 52 92 3.0 11.0 0.00 0.00 0.00 96 1017.7
20260906124632 52 155 4.0 11.0 0.00 0.00 0.00 96 1017.7
20260906124044 52 96 2.0 13.0 0.00 0.00 0.00 96 1017.7
20260906123540 52 148 4.0 13.0 0.00 0.00 0.00 96 1017.8
20260906123128 52 90 4.0 10.0 0.00 0.00 0.00 96 1017.8
20260906122532 52 128 6.0 12.0 0.00 0.00 0.00 96 1017.8
20260906122024 52 149 6.0 13.0 0.00 0.00 0.00 96 1017.8
20260906121659 52 27 5.0 14.0 0.00 0.00 0.00 96 1017.7
20260906121035 52 141 8.0 14.0 0.00 0.00 0.00 96 1017.6
20260906120543 52 32 4.0 13.0 0.00 0.00 0.00 96 1017.4
20260906120129 52 126 3.0 12.0 0.00 0.00 0.00 96 1017.5
20260906115525 52 124 5.0 12.0 0.00 0.00 0.00 96 1017.5
20260906115024 52 114 5.0 13.0 0.00 0.00 0.00 96 1017.4
20260906114656 52 97 5.0 15.0 0.00 0.00 0.00 96 1017.4
20260906114056 52 162 6.0 15.0 0.00 0.00 0.00 96 1017.3
20260906113527 52 146 3.0 11.0 0.00 0.00 0.00 96 1017.3
20260906113125 52 147 4.0 12.0 0.00 0.00 0.00 96 1017.3
20260906112548 52 83 6.0 12.0 0.00 0.00 0.00 96 1017.3
20260906112046 53 122 5.0 11.0 0.00 0.00 0.00 96 1017.3
20260906111620 52 70 6.0 11.0 0.00 0.00 0.00 96 1017.3
20260906111019 52 125 3.0 10.0 0.00 0.00 0.00 96 1017.3
20260906110547 52 78 4.0 10.0 0.00 0.00 0.00 96 1017.3
20260906110157 52 125 4.0 11.0 0.00 0.00 0.00 96 1017.3
20260906105523 52 146 5.0 11.0 0.00 0.00 0.00 96 1017.3
20260906105025 52 141 2.0 8.0 0.00 0.00 0.00 96 1017.2
20260906104630 53 117 2.0 11.0 0.00 0.00 0.00 95 1017.2
20260906104027 53 74 4.0 11.0 0.00 0.00 0.00 95 1017.0
20260906103548 53 46 3.0 11.0 0.00 0.00 0.00 95 1017.0
20260906103133 53 102 3.0 11.0 0.00 0.00 0.00 95 1017.0
20260906102547 54 336 4.0 11.0 0.00 0.00 0.00 94 1017.0
20260906102035 54 137 3.0 11.0 0.00 0.00 0.00 95 1016.9
20260906101618 54 90 2.0 8.0 0.00 0.00 0.00 95 1017.0
20260906101027 54 78 3.0 9.0 0.00 0.00 0.00 95 1017.0
20260906100544 54 175 3.0 10.0 0.00 0.00 0.00 95 1016.9
20260906100140 54 131 3.0 12.0 0.00 0.00 0.00 95 1016.8
20260906095529 54 113 4.0 12.0 0.00 0.00 0.00 95 1016.9
20260906095035 54 99 4.0 11.0 0.00 0.00 0.00 95 1016.8
20260906094616 54 97 4.0 11.0 0.00 0.00 0.00 95 1016.9
20260906094040 54 100 5.0 9.0 0.00 0.00 0.00 95 1017.0
20260906093523 54 96 3.0 9.0 0.00 0.00 0.00 94 1017.1
20260906093134 54 92 3.0 9.0 0.00 0.00 0.00 94 1017.0
20260906092542 54 109 2.0 4.0 0.00 0.00 0.00 93 1016.9
20260906092048 54 119 1.0 9.0 0.00 0.00 0.00 92 1016.9
20260906091613 55 65 4.0 9.0 0.00 0.00 0.00 93 1016.8
20260906091041 55 102 3.0 8.0 0.00 0.00 0.00 92 1016.7
20260906090545 55 75 4.0 10.0 0.00 0.00 0.00 92 1016.7
20260906090120 55 84 4.0 9.0 0.00 0.00 0.00 92 1016.7
20260906085537 55 140 5.0 11.0 0.00 0.00 0.00 92 1016.7
20260906085030 55 94 5.0 11.0 0.00 0.00 0.00 91 1016.7
20260906084620 55 109 5.0 9.0 0.00 0.00 0.00 91 1016.6
20260906084046 54 103 3.0 9.0 0.00 0.00 0.00 90 1016.7
20260906083536 55 124 2.0 8.0 0.00 0.00 0.00 90 1016.6
20260906083128 55 71 1.0 7.0 0.00 0.00 0.00 89 1016.6
20260906082529 55 67 1.0 7.0 0.00 0.00 0.00 89 1016.5
20260906082036 55 103 1.0 6.0 0.00 0.00 0.00 89 1016.4
20260906081620 55 82 2.0 6.0 0.00 0.00 0.00 88 1016.5
20260906081040 55 132 3.0 7.0 0.00 0.00 0.00 86 1016.4
20260906080532 55 121 2.0 7.0 0.00 0.00 0.00 85 1016.5
20260906080137 55 131 1.0 6.0 0.00 0.00 0.00 86 1016.5
20260906075527 55 144 3.0 6.0 0.00 0.00 0.00 86 1016.5
20260906075038 56 111 2.0 3.0 0.00 0.00 0.00 84 1016.6
20260906074657 56 134 0.0 3.0 0.00 0.00 0.00 82 1016.6
20260906074043 56 134 1.0 3.0 0.00 0.00 0.00 82 1016.5
20260906073525 56 155 1.0 3.0 0.00 0.00 0.00 82 1016.5
20260906073132 56 109 1.0 6.0 0.00 0.00 0.00 83 1016.5
20260906072529 55 142 3.0 6.0 0.00 0.00 0.00 85 1016.5
20260906072024 55 138 2.0 3.0 0.00 0.00 0.00 84 1016.4
20260906071607 55 159 1.0 2.0 0.00 0.00 0.00 84 1016.5
20260906071024 54 159 0.0 2.0 0.00 0.00 0.00 84 1016.4
20260906070535 54 159 0.0 2.0 0.00 0.00 0.00 84 1016.4
20260906070149 54 159 0.0 2.0 0.00 0.00 0.00 85 1016.4
20260906065524 54 159 0.0 2.0 0.00 0.00 0.00 86 1016.4
20260906065029 54 159 1.0 2.0 0.00 0.00 0.00 86 1016.4
20260906064634 54 159 0.0 2.0 0.00 0.00 0.00 87 1016.3
20260906064028 54 159 1.0 3.0 0.00 0.00 0.00 89 1016.4
20260906063524 54 163 2.0 3.0 0.00 0.00 0.00 89 1016.4
20260906063043 54 236 0.0 2.0 0.00 0.00 0.00 88 1016.4
20260906062528 55 236 0.0 1.0 0.00 0.00 0.00 87 1016.4
20260906062020 55 236 0.0 1.0 0.00 0.00 0.00 87 1016.4
20260906061628 55 236 0.0 1.0 0.00 0.00 0.00 88 1016.3
20260906061042 55 236 0.0 2.0 0.00 0.00 0.00 87 1016.3
20260906060528 55 236 1.0 2.0 0.00 0.00 0.00 85 1016.3
20260906060135 55 236 0.0 2.0 0.00 0.00 0.00 85 1016.2
20260906055543 55 236 1.0 2.0 0.00 0.00 0.00 85 1016.2
20260906055027 55 236 0.0 1.0 0.00 0.00 0.00 85 1016.1
20260906054622 55 236 0.0 0.0 0.00 0.00 0.00 85 1016.1
20260906054040 55 236 0.0 1.0 0.00 0.00 0.00 84 1016.1
20260906053524 55 236 0.0 2.0 0.00 0.00 0.00 85 1016.1
20260906053057 55 192 1.0 2.0 0.00 0.00 0.00 86 1016.0
20260906052530 55 192 0.0 2.0 0.00 0.00 0.00 86 1016.0
20260906052116 55 184 1.0 2.0 0.00 0.00 0.00 85 1016.0
20260906051639 55 184 0.0 1.0 0.00 0.00 0.00 85 1016.0
20260906051031 55 184 0.0 2.0 0.00 0.00 0.00 85 1015.9
20260906050525 56 184 0.0 2.0 0.00 0.00 0.00 85 1015.8
20260906050108 56 184 1.0 2.0 0.00 0.00 0.00 86 1015.9
20260906045525 56 171 0.0 2.0 0.00 0.00 0.00 85 1015.9
20260906045023 56 171 1.0 3.0 0.00 0.00 0.00 84 1015.8
20260906044620 56 146 1.0 3.0 0.00 0.00 0.00 85 1015.8
20260906044026 56 175 0.0 2.0 0.00 0.00 0.00 84 1015.8
20260906043523 56 176 0.0 2.0 0.00 0.00 0.00 83 1015.8
20260906043147 56 175 0.0 2.0 0.00 0.00 0.00 83 1015.9
20260906042520 57 171 0.0 2.0 0.00 0.00 0.00 83 1015.9
20260906042040 57 155 1.0 2.0 0.00 0.00 0.00 83 1015.9
20260906041627 57 225 1.0 2.0 0.00 0.00 0.00 82 1016.0
20260906041036 57 225 0.0 2.0 0.00 0.00 0.00 81 1016.1
20260906040534 58 225 0.0 2.0 0.00 0.00 0.00 82 1016.2
20260906040107 58 225 1.0 2.0 0.00 0.00 0.00 81 1016.2
20260906035537 58 225 0.0 2.0 0.00 0.00 0.00 81 1016.1
20260906035032 58 225 0.0 2.0 0.00 0.00 0.00 80 1016.0
20260906034642 58 225 0.0 2.0 0.00 0.00 0.00 80 1016.1
20260906034024 59 225 0.0 3.0 0.00 0.00 0.00 80 1016.2
20260906033539 59 225 1.0 3.0 0.00 0.00 0.00 80 1016.2
20260906033148 59 265 1.0 2.0 0.00 0.00 0.00 80 1016.2
20260906032525 60 177 0.0 2.0 0.00 0.00 0.00 79 1016.2
20260906032030 60 177 1.0 3.0 0.00 0.00 0.00 78 1016.3
20260906031621 60 173 2.0 3.0 0.00 0.00 0.00 78 1016.3
20260906031037 61 207 0.0 2.0 0.00 0.00 0.00 77 1016.2
20260906030616 61 238 1.0 2.0 0.00 0.00 0.00 77 1016.1
20260906030133 62 182 1.0 2.0 0.00 0.00 0.00 76 1016.0
20260906025548 62 156 0.0 3.0 0.00 0.00 0.00 75 1015.9
20260906025028 63 156 0.0 3.0 0.00 0.00 0.00 74 1016.0
20260906024637 63 164 1.0 3.0 0.00 0.00 0.00 73 1016.0
20260906024023 64 225 0.0 4.0 0.00 0.00 0.00 71 1016.0
20260906023523 65 225 2.0 4.0 0.00 0.00 0.00 69 1016.0
20260906023206 66 147 0.0 2.0 0.00 0.00 0.00 67 1015.9
20260906022526 67 147 0.0 2.0 0.00 0.00 0.00 66 1015.9
20260906022118 67 134 0.0 2.0 0.00 0.00 0.00 63 1016.0
20260906021635 68 161 0.0 1.0 0.00 0.00 0.00 62 1016.2
20260906021055 69 237 0.0 2.0 0.00 0.00 0.00 61 1016.0
20260906020532 70 183 0.0 2.0 0.00 0.00 0.00 57 1016.1
20260906020058 71 146 1.0 2.0 0.00 0.00 0.00 55 1016.0
20260906015526 72 146 0.0 3.0 0.00 0.00 0.00 55 1016.2
20260906015050 73 146 0.0 3.0 0.00 0.00 0.00 53 1016.2
20260906014703 74 237 1.0 3.0 0.00 0.00 0.00 52 1016.2
20260906014059 74 33 0.0 3.0 0.00 0.00 0.00 50 1016.3
20260906013548 74 327 0.0 3.0 0.00 0.00 0.00 48 1016.3
20260906013200 74 258 1.0 5.0 0.00 0.00 0.00 47 1016.3
20260906012550 74 304 2.0 7.0 0.00 0.00 0.00 46 1016.4
20260906012027 75 273 2.0 7.0 0.00 0.00 0.00 44 1016.5
20260906011718 75 283 2.0 6.0 0.00 0.00 0.00 47 1016.7
20260906011031 74 284 1.0 6.0 0.00 0.00 0.00 50 1016.5
20260906010547 74 279 3.0 7.0 0.00 0.00 0.00 49 1016.6
20260906010150 74 269 2.0 7.0 0.00 0.00 0.00 49 1016.6
20260906005600 74 259 2.0 4.0 0.00 0.00 0.00 49 1016.6
20260906005049 74 110 1.0 2.0 0.00 0.00 0.00 51 1016.6
20260906004627 74 110 0.0 1.0 0.00 0.00 0.00 54 1016.6
20260906004120 74 110 0.0 1.0 0.00 0.00 0.00 56 1016.7
20260906003529 74 110 0.0 1.0 0.00 0.00 0.00 55 1016.6
20260906003146 74 110 0.0 2.0 0.00 0.00 0.00 50 1016.6
20260906002620 74 110 0.0 2.0 0.00 0.00 0.00 52 1016.6
20260906002117 74 110 0.0 2.0 0.00 0.00 0.00 54 1016.7
20260906001600 73 110 0.0 2.0 0.00 0.00 0.00 51 1016.7
20260906001101 73 155 0.0 2.0 0.00 0.00 0.00 52 1016.7
20260906000616 73 155 1.0 3.0 0.00 0.00 0.00 54 1016.7
20260906000133 73 152 1.0 3.0 0.00 0.00 0.00 54 1016.9
20260905235600 73 109 1.0 2.0 0.00 0.00 0.00 54 1017.0
20260905235051 74 115 1.0 2.0 0.00 0.00 0.00 52 1017.0
20260905234645 74 107 1.0 2.0 0.00 0.00 0.00 51 1016.9
20260905234050 74 58 1.0 2.0 0.00 0.00 0.00 51 1017.1
20260905233546 74 90 1.0 2.0 0.00 0.00 0.00 49 1017.1
20260905233121 74 5 0.0 2.0 0.00 0.00 0.00 50 1017.0
20260905232539 74 360 0.0 2.0 0.00 0.00 0.00 51 1017.0
20260905232117 75 96 0.0 2.0 0.00 0.00 0.00 50 1017.1
20260905231700 75 96 1.0 2.0 0.00 0.00 0.00 50 1017.1
20260905231030 74 124 0.0 1.0 0.00 0.00 0.00 50 1017.2
20260905230612 75 124 0.0 1.0 0.00 0.00 0.00 49 1017.2
20260905230206 75 124 0.0 2.0 0.00 0.00 0.00 49 1017.1
20260905225615 75 136 0.0 2.0 0.00 0.00 0.00 50 1017.1